Preview of NWS' New Version of Forecast
This preview is not operational and should not be used for support decisions.

Regional Weather Roundup (RWR)

Issued by National Weather Service (NWS)

                            
000
ASUS45 KCYS 211310
RWRWY 

WYOMING REGIONAL WEATHER ROUNDUP
NATIONAL WEATHER SERVICE CHEYENNE WY
700 AM MDT WED AUG 21 2019

NOTE:  "FAIR" INDICATES FEW OR NO CLOUDS BELOW 12,000 FEET
WITH NO SIGNIFICANT WEATHER AND/OR OBSTRUCTIONS TO VISIBILITY.

WYZ001-211400-
...YELLOWSTONE NATIONAL PARK...
  
CITY           SKY/WX    TMP DP  RH WIND       PRES   REMARKS
LK YELLOWSTONE NOT AVBL                                               
W YELLOWSTONE  NOT AVBL                                               

$$
WYZ002>013-054>058-071-098>099-211400-
...NORTHERN WYOMING...
  
CITY           SKY/WX    TMP DP  RH WIND       PRES   REMARKS
JACKSON        CLEAR     40  34  79 N5        30.27R                  
CODY           CLEAR     54  46  74 S3        30.19S                  
GREYBULL       CLEAR     63  47  55 CALM      30.10R                  
WORLAND        CLEAR     59  51  75 S9        30.12S                  
SHERIDAN       CLEAR     55  50  83 SW5       30.14R                  
BUFFALO        CLEAR     60  52  74 NW8       30.20R                  
GILLETTE       PTCLDY    60  55  83 E6        30.15R                  
HULETT         FAIR      57  55  94 N7        30.19R                  
NEWCASTLE      FAIR      59  52  77 SE7       30.21R                  

$$
WYZ014>020-022>026-101>103-211400-
...CENTRAL WYOMING...
  
CITY           SKY/WX    TMP DP  RH WIND       PRES   REMARKS
BIG PINEY      CLEAR     40  23  50 NE3       30.29R                  
PINEDALE       CLEAR     39  32  75 NW6       30.30S WCI  35          
DUBOIS         FAIR      48  36  61 NW9       30.31S                  
LANDER         CLEAR     62  46  55 SW5       30.21S                  
RIVERTON       CLEAR     61  46  57 CALM      30.20R                  
CASPER         PTCLDY    53  47  79 CALM      30.21R                  
DOUGLAS        CLEAR     55  50  83 NW3       30.20R                  

$$
WYZ021-027>030-104>119-211400-
...SOUTHERN WYOMING...
  
CITY           SKY/WX    TMP DP  RH WIND       PRES   REMARKS
EVANSTON       CLEAR     56  20  24 S8        30.26R                  
KEMMERER       CLEAR     48  27  43 N12       30.28S                  
FORT BRIDGER   NOT AVBL                                               
ROCK SPRINGS   CLEAR     56  47  71 E8        30.27R                  
DIXON          FAIR      41  27  57 CALM      30.28R                  
RAWLINS        PTCLDY    50  45  83 NW3       30.28R                  
SARATOGA       FAIR      43  32  65 CALM      30.29R                  
LARAMIE        CLEAR     56  52  86 S17       30.27S                  
CHEYENNE       CLOUDY    61  50  67 S6        30.26R                  
TORRINGTON     MOCLDY    59  56  89 NE13      30.17R                  
PINE BLUFFS    FAIR      54  54 100 S3        30.23R                  

$$